AirNav   Everest Fuels
 
 1018 users online  

L70 Agua Dulce Airport
Agua Dulce, California, USA

GOING TO AGUA DULCE?


FAA INFORMATION EFFECTIVE 16 JULY 2020

Location

FAA Identifier: L70
Lat/Long: 34-30-09.2500N 118-18-52.7200W
34-30.154167N 118-18.878667W
34.5025694,-118.3146444
(estimated)
Elevation: 2660 ft. / 811 m (estimated)
Variation: 14E (1985)
From city: 2 miles E of AGUA DULCE, CA
Time zone: UTC -7 (UTC -8 during Standard Time)
Zip code: 91350

Airport Operations

Airport use: Open to the public
Activation date: 10/1958
Control tower: no
ARTCC: LOS ANGELES CENTER
FSS: RIVERSIDE FLIGHT SERVICE STATION
NOTAMs facility: RAL (NOTAM-D service available)
Attendance: 0800-1800
AIRPORT UNATNDD CHRISTMAS DAY; THANKSGIVING DAY AND NEW YEARS DAY.
Wind indicator: yes
Segmented circle: yes

Airport Communications

CTAF/UNICOM: 122.8
WX ASOS at PMD (14 nm NE): PHONE 661-272-3798
WX ASOS at WJF (15 nm N): PHONE 661-949-2840
WX AWOS-3PT at WHP (15 nm S): 132.1 (818-899-9820)
WX ASOS at BUR (18 nm S): PHONE 818-841-1384
WX ASOS at VNY (20 nm SW): PHONE 818-904-9213

Nearby radio navigation aids

VOR radial/distance  VOR name  Freq  Var
PMDr223/14.6PALMDALE VORTAC114.5015E
LHSr115/16.9LAKE HUGHES VORTAC114.3515E
VNYr013/18.9VAN NUYS VOR/DME113.1015E
FIMr058/29.4FILLMORE VORTAC112.5015E
SMOr358/30.4SANTA MONICA VOR/DME110.8015E
GMNr108/32.5GORMAN VORTAC116.1016E
LAXr355/34.7LOS ANGELES VORTAC113.6015E
POMr299/36.5POMONA VORTAC110.4015E

Airport Services

Fuel available: 100LL
SELF SERVICE
Parking: tiedowns
Bottled oxygen: NONE
Bulk oxygen: NONE

Runway Information

Runway 4/22

Dimensions: 4600 x 50 ft. / 1402 x 15 m
Surface: asphalt, in good condition
RUNWAY 4  RUNWAY 22
Latitude: 34-29.982167N34-30.445667N
Longitude: 118-19.154833W118-18.410333W
Elevation: 2639.5 ft.2552.5 ft.
Traffic pattern: leftright
Displaced threshold: 580 ft.838 ft.
Markings: basic, in good conditionbasic, in good condition
Runway end identifier lights: nono
Obstructions: 15 ft. bldg, 240 ft. from runway, 85 ft. right of centerline, 2:1 slope to clear
RWY 04 +15 FT HANGER 140-160 FT FM EOR 80 FT RIGHT.
4 ft. fence, 200 ft. from runway, 35 ft. right of centerline
+4 FT FENCE 0 FT - 200 FT FROM EOR DIAGONALLY FROM 50 FT LEFT TO 35 FT RIGHT.

Airport Ownership and Management from official FAA records

Ownership: Privately-owned
Owner: LAND SEA AIR LEASING CORPORATION
15853 OLDEN STREET, P.O. BOX 9203
SYLMAR, CA 91392
Phone (661) 268-8835
Manager: JOHN BONNER
33638 AGUA DULCE CANYON ROAD, P. O. BOX 9203
AGUA DULCE, CA 91390
Phone (661) 268-8835
DOUG ABNEY, ASST ARPT OPNS - PHONE 661-268-8835 CELL 661-268-8835. EMAIL: SUPPORT@L70AIRPORT.COM

Airport Operational Statistics

Aircraft based on the field: 33
Single engine airplanes: 27
Multi engine airplanes: 2
Helicopters: 3
Gliders airplanes: 1
    
Aircraft operations: avg 60/month *
50% transient general aviation
50% local general aviation
* for 12-month period ending 31 December 2016

Additional Remarks

RIDGE SOUTH OF AIRPORT PARALLEL TO RY VIOLATES 7:1 TRANSITIONAL SURFACE.
FORMATION ARRIVALS AND DEPARTURES PROHIBITED.
NO AEROBATICS PERMITTED.
AIRPORT CLSD SUNSET TO SUNRISE. ALL NIGHT OPERATIONS PROHIBITED BY LOCAL RESTRICTIONS.
ACTVT MIKE 5 TIMES ON CTAF FREQ FOR ARPT WX.
FOR CD CTC JOSHUA APCH AT 661-277-3843.
10-25 FT WIDE DITCH AT 170 FT ALONG SE EDGE OF RY.
TGL NOT PERMITTED.
AVOID FLYING WITHIN 1000 FT OF SCHOOL APRXLY ONE MILE SOUTHWEST. RY 04 DEP AVOID FLYING OVER HOMES 2,000 FT NE OF RY END.

Instrument Procedures

There are no published instrument procedures at L70.

Some nearby airports with instrument procedures:

KPMD - Palmdale USAF Plant 42 Airport (14 nm NE)
KWJF - General Wm J Fox Airfield (15 nm N)
KWHP - Whiteman Airport (15 nm S)
KBUR - Bob Hope Airport (18 nm S)
KVNY - Van Nuys Airport (20 nm SW)
 
Loc | Ops | Rwys | IFR | FBO | Links
Com | Nav | Svcs | Stats | Notes
Area around L70 (Agua Dulce Airport)
 
Road maps at: MapQuest Bing Google
 
Aerial photo
WARNING: Photo may not be current or correct
Aerial photo of L70 (Agua Dulce Airport)
Photo by Mark Robinson & eatsleepfly.com
Photo taken 08-Mar-2014
looking northwest.

Do you have a better or more recent aerial photo of Agua Dulce Airport that you would like to share? If so, please send us your photo.

 
Sectional chart

 
Airport distance calculator
Flying to Agua Dulce Airport? Find the distance to fly.

From to L70

Sunrise and sunset
Times for 11-Aug-2020
 Local
(UTC-7)
 Zulu
(UTC)
Morning civil twilight05:4612:46
Sunrise06:1313:13
Sunset19:4402:44
Evening civil twilight20:1003:10

Current date and time
Zulu (UTC)  12-Aug-2020 01:29:48
Local (UTC-7)  11-Aug-2020 18:29:48
 
METAR
KWJF 
14nm N 
120056Z 23018G24KT 10SM CLR 33/05 A2989 RMK AO2 SLP097 T03330050
KPMD 
14nm NE 
120053Z 24014G23KT 10SM CLR 34/00 A2990 RMK AO2 SLP095 T03390000
KWHP 
16nm S 
120055Z 00000KT 10SM SKC 31/03 A2990
KBUR 
18nm S 
120053Z 18006KT 10SM CLR 31/07 A2985 RMK AO2 SLP094 T03110072 $
KVNY 
19nm SW 
120051Z 11008KT 10SM CLR 34/00 A2984 RMK AO2 SLP096 T03390000
KCQT 
27nm S 
120052Z AUTO VRB05KT 10SM CLR 23/13 A2985 RMK AO2 SLP108 T02330133
TAF
KWJF 
14nm N 
120008Z 1200/1224 23015G25KT P6SM SKC FM120300 25011KT P6SM SKC FM122300 23015G25KT P6SM SKC
KPMD 
14nm NE 
111734Z 1118/1218 22013KT P6SM SKC FM112000 24015G25KT P6SM SKC FM120300 23012KT P6SM SKC FM120700 20006KT P6SM SKC
KBUR 
18nm S 
111734Z 1118/1218 16006KT P6SM SKC FM111900 14005KT P6SM SKC FM112100 18010KT P6SM SKC FM120300 14006KT P6SM SKC FM120800 VRB03KT P6SM SKC
KVNY 
19nm SW 
120008Z 1200/1224 14009KT P6SM SKC FM120400 11004KT P6SM SKC FM120900 VRB03KT P6SM SKC FM122100 14009KT P6SM SKC
NOTAMs
Click for the latest NOTAMs
NOTAMs are issued by the DoD/FAA and will open in a separate window not controlled by AirNav.

 

 
 

FBO, Fuel Providers, and Aircraft Ground Support

  
 Business Name 
 
 Contact 
 
 Services / Description 
 
Fuel Prices
 
Comments
  
Agua Dulce Airport 661-268-8835
[web site]
[email]
Airport management, Aviation fuel, Aircraft parking (ramp or tiedown), Hangar leasing / sales, Restrooms

More info about Agua Dulce Airport
Avfuel
100LL
SS $5.58 
 Updated 06-Aug-2020
 
   write
SS=Self service
Update Fuel Prices
 

Would you like to see your business listed on this page?

 If your business provides an interesting product or service to pilots, flight crews, aircraft, or users of the Agua Dulce Airport, you should consider listing it here.  To start the listing process, click on the button below
 
Add a business
 

Other Pages about Agua Dulce Airport

www.l70airport.com
 
Update a link
 
Copyright © AirNav, LLC. All rights reserved. Privacy Policy  Contact